User: anonymous   Login
Location: Pine Mountain Observatory
(43.7910°N, 120.9377°W)
Time: 13:29:47
(UTC-07:00)
Language:

IDEFIX/ARIANE 42P - Orbit

View from above orbital plane
View from above orbital plane
View from above satellite
View from above satellite

Ground track
Ground track

The orbit data is extracted from the following two-line orbital elements,

1 27422U 02021B   17088.91167030 -.00000046 +00000-0 -20397-5 0  9991
2 27422 098.2299 093.5711 0013537 109.9034 250.3609 14.29251641777246
Epoch (UTC): 29 March 2017 21:52:48
Eccentricity: 0.0013537
inclination: 98.2299°
perigee height: 784 km
apogee height: 804 km
right ascension of ascending node: 93.5711°
argument of perigee: 109.9034°
revolutions per day: 14.29251641
mean anomaly at epoch: 250.3609°
orbit number at epoch: 77724

The dashed part of the orbit path shows where the satellite is in the earth's shadow,  

DLR